ORBCOMM FM112 [+]

Last updated on Fri Dec 29 2023 00:02:54 GMT+0000 (Coordinated Universal Time)

1 41184U 15081F 23362.01180081 .00001022 00000+0 26678-3 0 9994 2 41184 46.9977 208.3039 0001077 93.5046 266.5962 14.56174778427378
UTC large
Height (km)
Speed (km/s)
/
Latitude / Longitude
Inclination (degrees)
Orbital Period (minutes)
Azimuth
Elevation
Range (km)
Doppler Factor

Next 0 passes for location: London (51.5072 / 0.1276)

Sorry there are no passes over London.
ORBCOMM FM112 [+]